TNO1122 KASE-KIND

Flight info

Callsign TNO1122
Flight time N/A
Altitude 41000
Route LINDZ1 LINDZ IDENE JNETT POWDR HGO CABET ATIJA FONIX SPI J80 VHP
Aircraft LJ45/M-SDFGILRWY/SB1

Departure

Time 2026-04-28 12:05
Airport Aspen-Pitkin County Airport (Sardy Field) (KASE)

Arrival

Time N/A
Airport Indianapolis International Airport (KIND)
Time Latitude Longitude Altitude Speed Heading
2026-04-28 11:55 39.22587 -106.86883 7824 ft 0 kts 70°
2026-04-28 12:00 39.22586 -106.86895 7824 ft 2 kts 92°
2026-04-28 12:00 39.22593 -106.86915 7824 ft 3 kts 141°
2026-04-28 12:01 39.22605 -106.86923 7824 ft 0 kts 160°
2026-04-28 12:01 39.22592 -106.86928 7824 ft 0 kts 243°
2026-04-28 12:01 39.22598 -106.86951 7824 ft 7 kts 334°
2026-04-28 12:01 39.22658 -106.86976 7824 ft 10 kts 337°
2026-04-28 12:02 39.22720 -106.87004 7824 ft 9 kts 344°
2026-04-28 12:02 39.22779 -106.87033 7824 ft 9 kts 337°
2026-04-28 12:02 39.22824 -106.87071 7824 ft 8 kts 289°
2026-04-28 12:02 39.22834 -106.87129 7824 ft 6 kts 326°
2026-04-28 12:03 39.22875 -106.87152 7824 ft 7 kts 339°
2026-04-28 12:03 39.22946 -106.87187 7824 ft 21 kts 339°
2026-04-28 12:03 39.23099 -106.87261 7824 ft 20 kts 340°
2026-04-28 12:03 39.23191 -106.87287 7824 ft 11 kts 353°
2026-04-28 12:04 39.23185 -106.87302 7824 ft 4 kts 137°
2026-04-28 12:04 39.23177 -106.87295 7824 ft 0 kts 158°
2026-04-28 12:04 39.23176 -106.87295 7824 ft 0 kts 158°
2026-04-28 12:05 39.22982 -106.87203 7824 ft 77 kts 158°
2026-04-28 12:05 39.22180 -106.86822 7827 ft 169 kts 160°
2026-04-28 12:05 39.20938 -106.86269 8423 ft 199 kts 165°
2026-04-28 12:05 39.19543 -106.86357 9054 ft 212 kts 201°
2026-04-28 12:06 39.18330 -106.87575 9681 ft 146 kts 180°